Home   Weather   Piešťany   Past weeks

Flag for Slovakia Past Weather in Piešťany, Slovakia — Yesterday and Last 2 Weeks

Now
70 °F

Sunny.


Feels Like: 70 °F
Forecast: 64 / 84 °F
Wind: 9 mph from North

Location: Piestany

Current Time: Jul 22, 2017 at 8:58:13 am

Latest Report: Jul 22, 2017 at 8:00 am


Visibility: 10 mi

Pressure: 29.98 "Hg

Humidity: 73%

Dew Point: 61 °F

Location of PiešťanyLocation

Past Weather in Piešťany — Graph

°F

Piešťany Temperature Yesterday

Maximum temperature yesterday: 86 °F (at 3:30 pm)
Minimum temperature yesterday: 66 °F (at 11:00 pm)
Average temperature yesterday: 76 °F

High & Low Weather Summary for the Past Weeks

 TemperatureHumidityPressure
High91 °F (Jul 20, 3:00 pm)100% (Jul 7, 10:00 pm)30.21 "Hg (Jul 7, 10:00 pm)
Low46 °F (Jul 14, 2:30 am)21% (Jul 16, 4:00 pm)29.74 "Hg (Jul 10, 7:00 pm)
Average71 °F61%29.99 "Hg
* Reported Jul 7 6:00 am — Jul 22 6:30 am, Piešťany. Weather by CustomWeather, © 2017

Note: Actual official high and low records may vary slightly from our data, if they occured in-between our weather recording intervals... More about our weather records

Advertising

Piešťany Weather History for the Previous 24 Hours

Scroll right to see more
 ConditionsComfort  
Time TempWeatherWind HumidityBarometerVisibility
6:30 am
Sat, Jul 22
64 °FSunny.9 mph83%29.95 "Hg10 mi
6:00 am64 °FSunny.8 mph83%29.95 "Hg10 mi
5:30 am63 °FMild.7 mph88%29.95 "HgN/A
5:00 am63 °FMild.5 mph88%29.95 "HgN/A
4:30 am63 °FMild.7 mph88%29.95 "HgN/A
4:00 am63 °FMild.6 mph88%29.95 "HgN/A
3:30 am63 °FMild.6 mph88%29.95 "HgN/A
3:00 am64 °FPassing clouds.8 mph83%29.95 "HgN/A
2:30 am63 °FPassing clouds.2 mph83%29.95 "HgN/A
2:00 am63 °FMild.5 mph83%29.95 "HgN/A
1:30 am64 °FMild.6 mph78%29.95 "HgN/A
1:00 am64 °FMild.2 mph78%29.95 "HgN/A
12:30 am66 °FMild.6 mph73%29.95 "HgN/A
12:00 am66 °FMild.6 mph73%29.95 "HgN/A
11:30 pm
Fri, Jul 21
66 °FMild.2 mph73%29.95 "HgN/A
11:00 pm66 °FMild.2 mph73%29.95 "HgN/A
10:30 pm68 °FMild.2 mph69%29.95 "HgN/A
10:00 pm70 °FClear.3 mph64%29.95 "Hg10 mi
9:30 pm73 °FClear.2 mph57%29.95 "Hg10 mi
9:00 pm75 °FClear.3 mph50%29.92 "Hg10 mi
8:30 pm77 °FSunny.6 mph47%29.92 "Hg10 mi
8:00 pm81 °FSunny.6 mph42%29.92 "Hg10 mi
7:30 pm82 °FSunny.9 mph37%29.92 "Hg10 mi
7:00 pm82 °FSunny.12 mph37%29.92 "Hg10 mi
6:30 pm84 °FSunny.13 mph33%29.92 "Hg10 mi
6:00 pm84 °FPassing clouds.12 mph37%29.92 "HgN/A
5:30 pm84 °FSunny.13 mph37%29.92 "Hg10 mi
5:00 pm84 °FSunny.13 mph40%29.92 "Hg10 mi
4:30 pm84 °FPassing clouds.14 mph40%29.92 "HgN/A
4:00 pm84 °FPassing clouds.12 mph40%29.95 "HgN/A
3:30 pm86 °FPassing clouds.10 mph38%29.95 "HgN/A
3:00 pm84 °FPassing clouds.8 mph43%29.95 "HgN/A
2:30 pm84 °FScattered clouds.9 mph43%29.95 "HgN/A
2:00 pm84 °FScattered clouds.14 mph40%29.95 "HgN/A
1:30 pm82 °FPassing clouds.13 mph45%29.95 "HgN/A
1:00 pm82 °FScattered clouds.12 mph48%29.95 "HgN/A
12:30 pm81 °FScattered clouds.12 mph51%29.95 "HgN/A
12:00 pm79 °FScattered clouds.14 mph51%29.95 "HgN/A
11:30 am81 °FScattered clouds.12 mph51%29.95 "HgN/A
11:00 am79 °FScattered clouds.10 mph54%29.95 "HgN/A
10:30 am77 °FScattered clouds.8 mph57%29.95 "HgN/A
10:00 am75 °FScattered clouds.7 mph65%29.95 "HgN/A
9:30 am75 °FScattered clouds.8 mph65%29.95 "HgN/A
9:00 am72 °FScattered clouds.7 mph73%29.95 "HgN/A
8:30 am72 °FScattered clouds.9 mph73%29.95 "HgN/A
8:00 am70 °FBroken clouds.8 mph83%29.95 "HgN/A
Weather by CustomWeather, © 2017

See weather overviewHow to use our weather pages